sat.trackr.live / text

‹ back to catalog

STARLINK-5892

NORAD 55954 · 2023-037AS

PAYLOAD ACTIVE UNKNOWN

§ Identity

Operator
Country
US
Launch date
2023-03-17
Launch site
AFWTR
Launch vehicle
Mass (kg)
RCS (m²)

Purposes: comms

External: N2YO · Heavens-Above · Gunter

§ Orbital elements

Epoch: 2026-05-25T04:32:30.329088Z

Period
96.11 min
Inclination
70.0006°
Eccentricity
0.0002881
Mean motion
14.98329392 rev/d
Perigee alt
570.1 km
Apogee alt
574.1 km
Semi-major
6,950.2 km
B*
2.3541e-5
RAAN
71.5145°
Arg perigee
269.7438°
Mean anomaly
90.3391°
Rev number
17,593

§ Raw data

STARLINK-58921 55954U 23037AS  26145.18923992  .00000188  00000+0  23541-4 0  99992 55954  70.0006  71.5145 0002881 269.7438  90.3391 14.98329392175934

JSON: /api/v1/satellites/55954 · /tle

For live sub-satellite position, see the globe view (requires WebGL).

§ Visibility from observer

Set your observer location to see the next 7 days of passes ≥ 10°. The values pass through the URL so the page stays shareable.

No JS? Fill the form by hand. The geolocation button needs JavaScript.